<?xml version="1.0" encoding="UTF-8" standalone="no" ?>
<gpx xmlns="http://www.topografix.com/GPX/1/1" xmlns:xsi="http://www.w3.org/2001/XMLSchema-instance" xsi:schemaLocation="http://www.topografix.com/GPX/1/1 http://www.topografix.com/GPX/1/1/gpx.xsd" version="1.1" creator="VisuGPX - https://www.visugpx.com">
  <metadata>
    <name>Cami Ramader d\'Evol</name>
    <desc><![CDATA[Cami Ramader d\'Evol]]></desc>
  </metadata>
  <trk>
    <name><![CDATA[camiramaderdevol]]></name>
    <trkseg>
      <trkpt lat="42.57082" lon="2.25356">
        <ele>785</ele>
        <time>2011-11-21T11:11:44Z</time>
      </trkpt>
      <trkpt lat="42.57127" lon="2.25402">
        <ele>798</ele>
        <time>2011-11-21T11:11:44Z</time>
      </trkpt>
      <trkpt lat="42.57192" lon="2.25435">
        <ele>805</ele>
        <time>2011-11-21T11:11:44Z</time>
      </trkpt>
      <trkpt lat="42.57206" lon="2.25402">
        <ele>803</ele>
        <time>2011-11-21T11:11:44Z</time>
      </trkpt>
      <trkpt lat="42.57174" lon="2.25335">
        <ele>799</ele>
        <time>2011-11-21T11:11:44Z</time>
      </trkpt>
      <trkpt lat="42.57186" lon="2.25314">
        <ele>799</ele>
        <time>2011-11-21T11:11:44Z</time>
      </trkpt>
      <trkpt lat="42.57228" lon="2.25298">
        <ele>807</ele>
        <time>2011-11-21T11:11:44Z</time>
      </trkpt>
      <trkpt lat="42.5732" lon="2.25201">
        <ele>813</ele>
        <time>2011-11-21T11:11:44Z</time>
      </trkpt>
      <trkpt lat="42.57406" lon="2.25143">
        <ele>823</ele>
        <time>2011-11-21T11:11:44Z</time>
      </trkpt>
      <trkpt lat="42.57482" lon="2.25006">
        <ele>812</ele>
        <time>2011-11-21T11:11:44Z</time>
      </trkpt>
      <trkpt lat="42.57569" lon="2.24876">
        <ele>831</ele>
        <time>2011-11-21T11:11:44Z</time>
      </trkpt>
      <trkpt lat="42.57598" lon="2.2483">
        <ele>831</ele>
        <time>2011-11-21T11:11:44Z</time>
      </trkpt>
      <trkpt lat="42.57645" lon="2.24794">
        <ele>838</ele>
        <time>2011-11-21T11:11:44Z</time>
      </trkpt>
      <trkpt lat="42.57686" lon="2.24763">
        <ele>845</ele>
        <time>2011-11-21T11:11:44Z</time>
      </trkpt>
      <trkpt lat="42.5776" lon="2.24812">
        <ele>848</ele>
        <time>2011-11-21T11:11:44Z</time>
      </trkpt>
      <trkpt lat="42.57859" lon="2.24754">
        <ele>865</ele>
        <time>2011-11-21T11:11:44Z</time>
      </trkpt>
      <trkpt lat="42.57915" lon="2.24772">
        <ele>882</ele>
        <time>2011-11-21T11:11:44Z</time>
      </trkpt>
      <trkpt lat="42.57942" lon="2.24772">
        <ele>891</ele>
        <time>2011-11-21T11:11:44Z</time>
      </trkpt>
      <trkpt lat="42.58036" lon="2.24693">
        <ele>904</ele>
        <time>2011-11-21T11:11:44Z</time>
      </trkpt>
      <trkpt lat="42.58067" lon="2.24732">
        <ele>925</ele>
        <time>2011-11-21T11:11:44Z</time>
      </trkpt>
      <trkpt lat="42.58115" lon="2.24753">
        <ele>934</ele>
        <time>2011-11-21T11:11:44Z</time>
      </trkpt>
      <trkpt lat="42.58162" lon="2.24741">
        <ele>932</ele>
        <time>2011-11-21T11:11:44Z</time>
      </trkpt>
      <trkpt lat="42.58191" lon="2.24693">
        <ele>926</ele>
        <time>2011-11-21T11:11:44Z</time>
      </trkpt>
      <trkpt lat="42.5826" lon="2.24632">
        <ele>937</ele>
        <time>2011-11-21T11:11:44Z</time>
      </trkpt>
      <trkpt lat="42.58296" lon="2.24534">
        <ele>942</ele>
        <time>2011-11-21T11:11:44Z</time>
      </trkpt>
      <trkpt lat="42.58316" lon="2.24458">
        <ele>946</ele>
        <time>2011-11-21T11:11:44Z</time>
      </trkpt>
      <trkpt lat="42.58354" lon="2.24358">
        <ele>954</ele>
        <time>2011-11-21T11:11:44Z</time>
      </trkpt>
      <trkpt lat="42.58368" lon="2.24309">
        <ele>958</ele>
        <time>2011-11-21T11:11:44Z</time>
      </trkpt>
      <trkpt lat="42.58375" lon="2.24206">
        <ele>965</ele>
        <time>2011-11-21T11:11:44Z</time>
      </trkpt>
      <trkpt lat="42.58397" lon="2.24155">
        <ele>971</ele>
        <time>2011-11-21T11:11:44Z</time>
      </trkpt>
      <trkpt lat="42.58397" lon="2.24124">
        <ele>970</ele>
        <time>2011-11-21T11:11:44Z</time>
      </trkpt>
      <trkpt lat="42.58464" lon="2.24118">
        <ele>985</ele>
        <time>2011-11-21T11:11:44Z</time>
      </trkpt>
      <trkpt lat="42.58563" lon="2.24166">
        <ele>998</ele>
        <time>2011-11-21T11:11:44Z</time>
      </trkpt>
      <trkpt lat="42.5866" lon="2.24218">
        <ele>1009</ele>
        <time>2011-11-21T11:11:44Z</time>
      </trkpt>
      <trkpt lat="42.58705" lon="2.24218">
        <ele>1013</ele>
        <time>2011-11-21T11:11:44Z</time>
      </trkpt>
      <trkpt lat="42.58763" lon="2.24163">
        <ele>1026</ele>
        <time>2011-11-21T11:11:44Z</time>
      </trkpt>
      <trkpt lat="42.58761" lon="2.2409">
        <ele>1048</ele>
        <time>2011-11-21T11:11:44Z</time>
      </trkpt>
      <trkpt lat="42.5879" lon="2.2413">
        <ele>1032</ele>
        <time>2011-11-21T11:11:44Z</time>
      </trkpt>
      <trkpt lat="42.58821" lon="2.2412">
        <ele>1038</ele>
        <time>2011-11-21T11:11:44Z</time>
      </trkpt>
      <trkpt lat="42.589" lon="2.24017">
        <ele>1056</ele>
        <time>2011-11-21T11:11:44Z</time>
      </trkpt>
      <trkpt lat="42.58906" lon="2.23956">
        <ele>1064</ele>
        <time>2011-11-21T11:11:44Z</time>
      </trkpt>
      <trkpt lat="42.58888" lon="2.23905">
        <ele>1070</ele>
        <time>2011-11-21T11:11:44Z</time>
      </trkpt>
      <trkpt lat="42.58873" lon="2.23859">
        <ele>1076</ele>
        <time>2011-11-21T11:11:44Z</time>
      </trkpt>
      <trkpt lat="42.58873" lon="2.23826">
        <ele>1083</ele>
        <time>2011-11-21T11:11:44Z</time>
      </trkpt>
      <trkpt lat="42.58855" lon="2.23801">
        <ele>1079</ele>
        <time>2011-11-21T11:11:44Z</time>
      </trkpt>
      <trkpt lat="42.5883" lon="2.23777">
        <ele>1079</ele>
        <time>2011-11-21T11:11:44Z</time>
      </trkpt>
      <trkpt lat="42.58868" lon="2.23738">
        <ele>1089</ele>
        <time>2011-11-21T11:11:44Z</time>
      </trkpt>
      <trkpt lat="42.58893" lon="2.23737">
        <ele>1096</ele>
        <time>2011-11-21T11:11:44Z</time>
      </trkpt>
      <trkpt lat="42.58931" lon="2.23707">
        <ele>1101</ele>
        <time>2011-11-21T11:11:44Z</time>
      </trkpt>
      <trkpt lat="42.58974" lon="2.23789">
        <ele>1118</ele>
        <time>2011-11-21T11:11:44Z</time>
      </trkpt>
      <trkpt lat="42.59021" lon="2.23853">
        <ele>1129</ele>
        <time>2011-11-21T11:11:44Z</time>
      </trkpt>
      <trkpt lat="42.59072" lon="2.2388">
        <ele>1128</ele>
        <time>2011-11-21T11:11:44Z</time>
      </trkpt>
      <trkpt lat="42.5914" lon="2.23956">
        <ele>1137</ele>
        <time>2011-11-21T11:11:44Z</time>
      </trkpt>
      <trkpt lat="42.59187" lon="2.23995">
        <ele>1148</ele>
        <time>2011-11-21T11:11:44Z</time>
      </trkpt>
      <trkpt lat="42.59259" lon="2.23956">
        <ele>1152</ele>
        <time>2011-11-21T11:11:44Z</time>
      </trkpt>
      <trkpt lat="42.59304" lon="2.23898">
        <ele>1160</ele>
        <time>2011-11-21T11:11:44Z</time>
      </trkpt>
      <trkpt lat="42.59366" lon="2.23816">
        <ele>1178</ele>
        <time>2011-11-21T11:11:44Z</time>
      </trkpt>
      <trkpt lat="42.59405" lon="2.23785">
        <ele>1186</ele>
        <time>2011-11-21T11:11:44Z</time>
      </trkpt>
      <trkpt lat="42.59479" lon="2.23782">
        <ele>1201</ele>
        <time>2011-11-21T11:11:44Z</time>
      </trkpt>
      <trkpt lat="42.59519" lon="2.23749">
        <ele>1202</ele>
        <time>2011-11-21T11:11:44Z</time>
      </trkpt>
      <trkpt lat="42.59535" lon="2.23685">
        <ele>1207</ele>
        <time>2011-11-21T11:11:44Z</time>
      </trkpt>
      <trkpt lat="42.59499" lon="2.23633">
        <ele>1205</ele>
        <time>2011-11-21T11:11:44Z</time>
      </trkpt>
      <trkpt lat="42.59469" lon="2.23591">
        <ele>1207</ele>
        <time>2011-11-21T11:11:44Z</time>
      </trkpt>
      <trkpt lat="42.59465" lon="2.23557">
        <ele>1211</ele>
        <time>2011-11-21T11:11:44Z</time>
      </trkpt>
      <trkpt lat="42.59526" lon="2.2353">
        <ele>1230</ele>
        <time>2011-11-21T11:11:44Z</time>
      </trkpt>
      <trkpt lat="42.59548" lon="2.23496">
        <ele>1232</ele>
        <time>2011-11-21T11:11:44Z</time>
      </trkpt>
      <trkpt lat="42.59635" lon="2.23496">
        <ele>1236</ele>
        <time>2011-11-21T11:11:44Z</time>
      </trkpt>
      <trkpt lat="42.59707" lon="2.23539">
        <ele>1247</ele>
        <time>2011-11-21T11:11:44Z</time>
      </trkpt>
      <trkpt lat="42.59808" lon="2.23544">
        <ele>1261</ele>
        <time>2011-11-21T11:11:44Z</time>
      </trkpt>
      <trkpt lat="42.59853" lon="2.23484">
        <ele>1274</ele>
        <time>2011-11-21T11:11:44Z</time>
      </trkpt>
      <trkpt lat="42.59862" lon="2.2345">
        <ele>1282</ele>
        <time>2011-11-21T11:11:44Z</time>
      </trkpt>
      <trkpt lat="42.59873" lon="2.23456">
        <ele>1279</ele>
        <time>2011-11-21T11:11:44Z</time>
      </trkpt>
      <trkpt lat="42.59885" lon="2.23502">
        <ele>1269</ele>
        <time>2011-11-21T11:11:44Z</time>
      </trkpt>
      <trkpt lat="42.5997" lon="2.23502">
        <ele>1288</ele>
        <time>2011-11-21T11:11:44Z</time>
      </trkpt>
      <trkpt lat="42.60013" lon="2.23541">
        <ele>1296</ele>
        <time>2011-11-21T11:11:44Z</time>
      </trkpt>
      <trkpt lat="42.59992" lon="2.23456">
        <ele>1318</ele>
        <time>2011-11-21T11:11:44Z</time>
      </trkpt>
      <trkpt lat="42.6006" lon="2.23492">
        <ele>1334</ele>
        <time>2011-11-21T11:11:44Z</time>
      </trkpt>
      <trkpt lat="42.60116" lon="2.23553">
        <ele>1331</ele>
        <time>2011-11-21T11:11:44Z</time>
      </trkpt>
      <trkpt lat="42.60161" lon="2.23544">
        <ele>1334</ele>
        <time>2011-11-21T11:11:44Z</time>
      </trkpt>
      <trkpt lat="42.60179" lon="2.23465">
        <ele>1345</ele>
        <time>2011-11-21T11:11:44Z</time>
      </trkpt>
      <trkpt lat="42.60217" lon="2.23407">
        <ele>1347</ele>
        <time>2011-11-21T11:11:44Z</time>
      </trkpt>
      <trkpt lat="42.6032" lon="2.23413">
        <ele>1340</ele>
        <time>2011-11-21T11:11:44Z</time>
      </trkpt>
      <trkpt lat="42.60354" lon="2.23413">
        <ele>1345</ele>
        <time>2011-11-21T11:11:44Z</time>
      </trkpt>
      <trkpt lat="42.60421" lon="2.23461">
        <ele>1349</ele>
        <time>2011-11-21T11:11:44Z</time>
      </trkpt>
      <trkpt lat="42.60473" lon="2.23501">
        <ele>1355</ele>
        <time>2011-11-21T11:11:44Z</time>
      </trkpt>
      <trkpt lat="42.605" lon="2.23558">
        <ele>1357</ele>
        <time>2011-11-21T11:11:44Z</time>
      </trkpt>
      <trkpt lat="42.60565" lon="2.23613">
        <ele>1361</ele>
        <time>2011-11-21T11:11:44Z</time>
      </trkpt>
      <trkpt lat="42.60668" lon="2.23768">
        <ele>1378</ele>
        <time>2011-11-21T11:11:44Z</time>
      </trkpt>
      <trkpt lat="42.60761" lon="2.23841">
        <ele>1403</ele>
        <time>2011-11-21T11:11:44Z</time>
      </trkpt>
      <trkpt lat="42.60857" lon="2.23862">
        <ele>1418</ele>
        <time>2011-11-21T11:11:44Z</time>
      </trkpt>
      <trkpt lat="42.60976" lon="2.23825">
        <ele>1433</ele>
        <time>2011-11-21T11:11:44Z</time>
      </trkpt>
      <trkpt lat="42.61133" lon="2.23813">
        <ele>1460</ele>
        <time>2011-11-21T11:11:44Z</time>
      </trkpt>
      <trkpt lat="42.61239" lon="2.23846">
        <ele>1479</ele>
        <time>2011-11-21T11:11:44Z</time>
      </trkpt>
      <trkpt lat="42.61268" lon="2.23815">
        <ele>1494</ele>
        <time>2011-11-21T11:11:44Z</time>
      </trkpt>
      <trkpt lat="42.61308" lon="2.23855">
        <ele>1495</ele>
        <time>2011-11-21T11:11:44Z</time>
      </trkpt>
      <trkpt lat="42.61371" lon="2.23879">
        <ele>1506</ele>
        <time>2011-11-21T11:11:44Z</time>
      </trkpt>
      <trkpt lat="42.61479" lon="2.239">
        <ele>1521</ele>
        <time>2011-11-21T11:11:44Z</time>
      </trkpt>
      <trkpt lat="42.61486" lon="2.23943">
        <ele>1519</ele>
        <time>2011-11-21T11:11:44Z</time>
      </trkpt>
      <trkpt lat="42.61546" lon="2.23982">
        <ele>1521</ele>
        <time>2011-11-21T11:11:44Z</time>
      </trkpt>
      <trkpt lat="42.61585" lon="2.24034">
        <ele>1522</ele>
        <time>2011-11-21T11:11:44Z</time>
      </trkpt>
      <trkpt lat="42.61605" lon="2.24052">
        <ele>1523</ele>
        <time>2011-11-21T11:11:44Z</time>
      </trkpt>
      <trkpt lat="42.61605" lon="2.24098">
        <ele>1530</ele>
        <time>2011-11-21T11:11:44Z</time>
      </trkpt>
      <trkpt lat="42.61621" lon="2.24143">
        <ele>1538</ele>
        <time>2011-11-21T11:11:44Z</time>
      </trkpt>
      <trkpt lat="42.61666" lon="2.24183">
        <ele>1547</ele>
        <time>2011-11-21T11:11:44Z</time>
      </trkpt>
      <trkpt lat="42.61737" lon="2.24179">
        <ele>1550</ele>
        <time>2011-11-21T11:11:44Z</time>
      </trkpt>
      <trkpt lat="42.61784" lon="2.24109">
        <ele>1552</ele>
        <time>2011-11-21T11:11:44Z</time>
      </trkpt>
      <trkpt lat="42.61784" lon="2.24091">
        <ele>1553</ele>
        <time>2011-11-21T11:11:44Z</time>
      </trkpt>
      <trkpt lat="42.61809" lon="2.23997">
        <ele>1558</ele>
        <time>2011-11-21T11:11:44Z</time>
      </trkpt>
      <trkpt lat="42.61872" lon="2.23936">
        <ele>1571</ele>
        <time>2011-11-21T11:11:44Z</time>
      </trkpt>
      <trkpt lat="42.61876" lon="2.24027">
        <ele>1576</ele>
        <time>2011-11-21T11:11:44Z</time>
      </trkpt>
      <trkpt lat="42.61876" lon="2.24103">
        <ele>1580</ele>
        <time>2011-11-21T11:11:44Z</time>
      </trkpt>
      <trkpt lat="42.61834" lon="2.24185">
        <ele>1576</ele>
        <time>2011-11-21T11:11:44Z</time>
      </trkpt>
      <trkpt lat="42.61715" lon="2.24292">
        <ele>1583</ele>
        <time>2011-11-21T11:11:44Z</time>
      </trkpt>
      <trkpt lat="42.6163" lon="2.24304">
        <ele>1594</ele>
        <time>2011-11-21T11:11:44Z</time>
      </trkpt>
      <trkpt lat="42.61594" lon="2.24304">
        <ele>1597</ele>
        <time>2011-11-21T11:11:44Z</time>
      </trkpt>
      <trkpt lat="42.61515" lon="2.24347">
        <ele>1606</ele>
        <time>2011-11-21T11:11:44Z</time>
      </trkpt>
      <trkpt lat="42.61461" lon="2.24317">
        <ele>1603</ele>
        <time>2011-11-21T11:11:44Z</time>
      </trkpt>
      <trkpt lat="42.61412" lon="2.24323">
        <ele>1609</ele>
        <time>2011-11-21T11:11:44Z</time>
      </trkpt>
      <trkpt lat="42.61331" lon="2.24344">
        <ele>1617</ele>
        <time>2011-11-21T11:11:44Z</time>
      </trkpt>
      <trkpt lat="42.61262" lon="2.24353">
        <ele>1630</ele>
        <time>2011-11-21T11:11:44Z</time>
      </trkpt>
      <trkpt lat="42.61134" lon="2.24287">
        <ele>1628</ele>
        <time>2011-11-21T11:11:44Z</time>
      </trkpt>
      <trkpt lat="42.61111" lon="2.24269">
        <ele>1627</ele>
        <time>2011-11-21T11:11:44Z</time>
      </trkpt>
      <trkpt lat="42.61066" lon="2.24314">
        <ele>1640</ele>
        <time>2011-11-21T11:11:44Z</time>
      </trkpt>
      <trkpt lat="42.61006" lon="2.24381">
        <ele>1651</ele>
        <time>2011-11-21T11:11:44Z</time>
      </trkpt>
      <trkpt lat="42.60934" lon="2.24451">
        <ele>1650</ele>
        <time>2011-11-21T11:11:44Z</time>
      </trkpt>
      <trkpt lat="42.60889" lon="2.24506">
        <ele>1655</ele>
        <time>2011-11-21T11:11:44Z</time>
      </trkpt>
      <trkpt lat="42.60826" lon="2.24543">
        <ele>1654</ele>
        <time>2011-11-21T11:11:44Z</time>
      </trkpt>
      <trkpt lat="42.60775" lon="2.24543">
        <ele>1656</ele>
        <time>2011-11-21T11:11:44Z</time>
      </trkpt>
      <trkpt lat="42.60725" lon="2.24476">
        <ele>1646</ele>
        <time>2011-11-21T11:11:44Z</time>
      </trkpt>
      <trkpt lat="42.60678" lon="2.24446">
        <ele>1646</ele>
        <time>2011-11-21T11:11:44Z</time>
      </trkpt>
      <trkpt lat="42.60624" lon="2.24455">
        <ele>1651</ele>
        <time>2011-11-21T11:11:44Z</time>
      </trkpt>
      <trkpt lat="42.60581" lon="2.24464">
        <ele>1654</ele>
        <time>2011-11-21T11:11:44Z</time>
      </trkpt>
      <trkpt lat="42.60546" lon="2.24412">
        <ele>1637</ele>
        <time>2011-11-21T11:11:44Z</time>
      </trkpt>
      <trkpt lat="42.60519" lon="2.24382">
        <ele>1633</ele>
        <time>2011-11-21T11:11:44Z</time>
      </trkpt>
      <trkpt lat="42.60426" lon="2.24355">
        <ele>1646</ele>
        <time>2011-11-21T11:11:44Z</time>
      </trkpt>
      <trkpt lat="42.60341" lon="2.24352">
        <ele>1650</ele>
        <time>2011-11-21T11:11:44Z</time>
      </trkpt>
      <trkpt lat="42.60283" lon="2.24364">
        <ele>1646</ele>
        <time>2011-11-21T11:11:44Z</time>
      </trkpt>
      <trkpt lat="42.60209" lon="2.2441">
        <ele>1646</ele>
        <time>2011-11-21T11:11:44Z</time>
      </trkpt>
      <trkpt lat="42.60168" lon="2.24425">
        <ele>1649</ele>
        <time>2011-11-21T11:11:44Z</time>
      </trkpt>
      <trkpt lat="42.60119" lon="2.24398">
        <ele>1640</ele>
        <time>2011-11-21T11:11:44Z</time>
      </trkpt>
      <trkpt lat="42.60103" lon="2.24386">
        <ele>1635</ele>
        <time>2011-11-21T11:11:44Z</time>
      </trkpt>
      <trkpt lat="42.60056" lon="2.24413">
        <ele>1639</ele>
        <time>2011-11-21T11:11:44Z</time>
      </trkpt>
      <trkpt lat="42.60018" lon="2.24434">
        <ele>1637</ele>
        <time>2011-11-21T11:11:44Z</time>
      </trkpt>
      <trkpt lat="42.59975" lon="2.24535">
        <ele>1640</ele>
        <time>2011-11-21T11:11:44Z</time>
      </trkpt>
      <trkpt lat="42.59924" lon="2.24672">
        <ele>1640</ele>
        <time>2011-11-21T11:11:44Z</time>
      </trkpt>
      <trkpt lat="42.59893" lon="2.24775">
        <ele>1632</ele>
        <time>2011-11-21T11:11:44Z</time>
      </trkpt>
      <trkpt lat="42.59933" lon="2.24872">
        <ele>1639</ele>
        <time>2011-11-21T11:11:44Z</time>
      </trkpt>
      <trkpt lat="42.59949" lon="2.24975">
        <ele>1638</ele>
        <time>2011-11-21T11:11:44Z</time>
      </trkpt>
      <trkpt lat="42.5994" lon="2.25">
        <ele>1640</ele>
        <time>2011-11-21T11:11:44Z</time>
      </trkpt>
      <trkpt lat="42.59886" lon="2.25042">
        <ele>1636</ele>
        <time>2011-11-21T11:11:44Z</time>
      </trkpt>
      <trkpt lat="42.5985" lon="2.25058">
        <ele>1632</ele>
        <time>2011-11-21T11:11:44Z</time>
      </trkpt>
      <trkpt lat="42.59796" lon="2.2507">
        <ele>1626</ele>
        <time>2011-11-21T11:11:44Z</time>
      </trkpt>
      <trkpt lat="42.59758" lon="2.25103">
        <ele>1625</ele>
        <time>2011-11-21T11:11:44Z</time>
      </trkpt>
      <trkpt lat="42.59716" lon="2.25198">
        <ele>1635</ele>
        <time>2011-11-21T11:11:44Z</time>
      </trkpt>
      <trkpt lat="42.59657" lon="2.25234">
        <ele>1633</ele>
        <time>2011-11-21T11:11:44Z</time>
      </trkpt>
      <trkpt lat="42.59581" lon="2.25246">
        <ele>1631</ele>
        <time>2011-11-21T11:11:44Z</time>
      </trkpt>
      <trkpt lat="42.59496" lon="2.25253">
        <ele>1628</ele>
        <time>2011-11-21T11:11:44Z</time>
      </trkpt>
      <trkpt lat="42.59457" lon="2.25271">
        <ele>1629</ele>
        <time>2011-11-21T11:11:44Z</time>
      </trkpt>
      <trkpt lat="42.59419" lon="2.25301">
        <ele>1628</ele>
        <time>2011-11-21T11:11:44Z</time>
      </trkpt>
      <trkpt lat="42.59381" lon="2.25302">
        <ele>1622</ele>
        <time>2011-11-21T11:11:44Z</time>
      </trkpt>
      <trkpt lat="42.59285" lon="2.25302">
        <ele>1610</ele>
        <time>2011-11-21T11:11:44Z</time>
      </trkpt>
      <trkpt lat="42.59202" lon="2.25272">
        <ele>1603</ele>
        <time>2011-11-21T11:11:44Z</time>
      </trkpt>
      <trkpt lat="42.59231" lon="2.25387">
        <ele>1586</ele>
        <time>2011-11-21T11:11:44Z</time>
      </trkpt>
      <trkpt lat="42.59258" lon="2.25447">
        <ele>1573</ele>
        <time>2011-11-21T11:11:44Z</time>
      </trkpt>
      <trkpt lat="42.59301" lon="2.2552">
        <ele>1560</ele>
        <time>2011-11-21T11:11:44Z</time>
      </trkpt>
      <trkpt lat="42.59316" lon="2.25569">
        <ele>1553</ele>
        <time>2011-11-21T11:11:44Z</time>
      </trkpt>
      <trkpt lat="42.5931" lon="2.25633">
        <ele>1546</ele>
        <time>2011-11-21T11:11:44Z</time>
      </trkpt>
      <trkpt lat="42.5928" lon="2.25657">
        <ele>1545</ele>
        <time>2011-11-21T11:11:44Z</time>
      </trkpt>
      <trkpt lat="42.59215" lon="2.25654">
        <ele>1526</ele>
        <time>2011-11-21T11:11:44Z</time>
      </trkpt>
      <trkpt lat="42.59146" lon="2.25697">
        <ele>1515</ele>
        <time>2011-11-21T11:11:44Z</time>
      </trkpt>
      <trkpt lat="42.59022" lon="2.25742">
        <ele>1486</ele>
        <time>2011-11-21T11:11:44Z</time>
      </trkpt>
      <trkpt lat="42.58968" lon="2.25794">
        <ele>1464</ele>
        <time>2011-11-21T11:11:44Z</time>
      </trkpt>
      <trkpt lat="42.58906" lon="2.25855">
        <ele>1439</ele>
        <time>2011-11-21T11:11:44Z</time>
      </trkpt>
      <trkpt lat="42.5885" lon="2.25952">
        <ele>1434</ele>
        <time>2011-11-21T11:11:44Z</time>
      </trkpt>
      <trkpt lat="42.588" lon="2.25992">
        <ele>1430</ele>
        <time>2011-11-21T11:11:44Z</time>
      </trkpt>
      <trkpt lat="42.58726" lon="2.25998">
        <ele>1409</ele>
        <time>2011-11-21T11:11:44Z</time>
      </trkpt>
      <trkpt lat="42.58591" lon="2.26004">
        <ele>1375</ele>
        <time>2011-11-21T11:11:44Z</time>
      </trkpt>
      <trkpt lat="42.58468" lon="2.26004">
        <ele>1352</ele>
        <time>2011-11-21T11:11:44Z</time>
      </trkpt>
      <trkpt lat="42.58414" lon="2.25974">
        <ele>1333</ele>
        <time>2011-11-21T11:11:44Z</time>
      </trkpt>
      <trkpt lat="42.58336" lon="2.25923">
        <ele>1309</ele>
        <time>2011-11-21T11:11:44Z</time>
      </trkpt>
      <trkpt lat="42.58282" lon="2.25898">
        <ele>1290</ele>
        <time>2011-11-21T11:11:44Z</time>
      </trkpt>
      <trkpt lat="42.5825" lon="2.25838">
        <ele>1265</ele>
        <time>2011-11-21T11:11:44Z</time>
      </trkpt>
      <trkpt lat="42.58205" lon="2.25789">
        <ele>1244</ele>
        <time>2011-11-21T11:11:44Z</time>
      </trkpt>
      <trkpt lat="42.58167" lon="2.25722">
        <ele>1226</ele>
        <time>2011-11-21T11:11:44Z</time>
      </trkpt>
      <trkpt lat="42.58149" lon="2.25646">
        <ele>1204</ele>
        <time>2011-11-21T11:11:44Z</time>
      </trkpt>
      <trkpt lat="42.58106" lon="2.25604">
        <ele>1189</ele>
        <time>2011-11-21T11:11:44Z</time>
      </trkpt>
      <trkpt lat="42.58046" lon="2.25595">
        <ele>1179</ele>
        <time>2011-11-21T11:11:44Z</time>
      </trkpt>
      <trkpt lat="42.5796" lon="2.25562">
        <ele>1154</ele>
        <time>2011-11-21T11:11:44Z</time>
      </trkpt>
      <trkpt lat="42.57877" lon="2.25522">
        <ele>1120</ele>
        <time>2011-11-21T11:11:44Z</time>
      </trkpt>
      <trkpt lat="42.57832" lon="2.25522">
        <ele>1095</ele>
        <time>2011-11-21T11:11:44Z</time>
      </trkpt>
      <trkpt lat="42.57763" lon="2.25416">
        <ele>1063</ele>
        <time>2011-11-21T11:11:44Z</time>
      </trkpt>
      <trkpt lat="42.57767" lon="2.2538">
        <ele>1058</ele>
        <time>2011-11-21T11:11:44Z</time>
      </trkpt>
      <trkpt lat="42.57731" lon="2.25365">
        <ele>1050</ele>
        <time>2011-11-21T11:11:44Z</time>
      </trkpt>
      <trkpt lat="42.57704" lon="2.25383">
        <ele>1046</ele>
        <time>2011-11-21T11:11:44Z</time>
      </trkpt>
      <trkpt lat="42.57713" lon="2.25504">
        <ele>1024</ele>
        <time>2011-11-21T11:11:44Z</time>
      </trkpt>
      <trkpt lat="42.57644" lon="2.25438">
        <ele>1006</ele>
        <time>2011-11-21T11:11:44Z</time>
      </trkpt>
      <trkpt lat="42.5763" lon="2.25401">
        <ele>1003</ele>
        <time>2011-11-21T11:11:44Z</time>
      </trkpt>
      <trkpt lat="42.57612" lon="2.25313">
        <ele>986</ele>
        <time>2011-11-21T11:11:44Z</time>
      </trkpt>
      <trkpt lat="42.57601" lon="2.25346">
        <ele>982</ele>
        <time>2011-11-21T11:11:44Z</time>
      </trkpt>
      <trkpt lat="42.57585" lon="2.25319">
        <ele>970</ele>
        <time>2011-11-21T11:11:44Z</time>
      </trkpt>
      <trkpt lat="42.5757" lon="2.25368">
        <ele>962</ele>
        <time>2011-11-21T11:11:44Z</time>
      </trkpt>
      <trkpt lat="42.57558" lon="2.25362">
        <ele>955</ele>
        <time>2011-11-21T11:11:44Z</time>
      </trkpt>
      <trkpt lat="42.57549" lon="2.25268">
        <ele>940</ele>
        <time>2011-11-21T11:11:44Z</time>
      </trkpt>
      <trkpt lat="42.57547" lon="2.25246">
        <ele>933</ele>
        <time>2011-11-21T11:11:44Z</time>
      </trkpt>
      <trkpt lat="42.57473" lon="2.25307">
        <ele>909</ele>
        <time>2011-11-21T11:11:44Z</time>
      </trkpt>
      <trkpt lat="42.57412" lon="2.25332">
        <ele>891</ele>
        <time>2011-11-21T11:11:44Z</time>
      </trkpt>
      <trkpt lat="42.57383" lon="2.2538">
        <ele>884</ele>
        <time>2011-11-21T11:11:44Z</time>
      </trkpt>
      <trkpt lat="42.57359" lon="2.25383">
        <ele>876</ele>
        <time>2011-11-21T11:11:44Z</time>
      </trkpt>
      <trkpt lat="42.57347" lon="2.2535">
        <ele>872</ele>
        <time>2011-11-21T11:11:44Z</time>
      </trkpt>
      <trkpt lat="42.57358" lon="2.25277">
        <ele>861</ele>
        <time>2011-11-21T11:11:44Z</time>
      </trkpt>
      <trkpt lat="42.57293" lon="2.25335">
        <ele>848</ele>
        <time>2011-11-21T11:11:44Z</time>
      </trkpt>
      <trkpt lat="42.57264" lon="2.25362">
        <ele>834</ele>
        <time>2011-11-21T11:11:44Z</time>
      </trkpt>
      <trkpt lat="42.57242" lon="2.25371">
        <ele>821</ele>
        <time>2011-11-21T11:11:44Z</time>
      </trkpt>
      <trkpt lat="42.5724" lon="2.25341">
        <ele>822</ele>
        <time>2011-11-21T11:11:44Z</time>
      </trkpt>
      <trkpt lat="42.57201" lon="2.25335">
        <ele>811</ele>
        <time>2011-11-21T11:11:44Z</time>
      </trkpt>
      <trkpt lat="42.57174" lon="2.25344">
        <ele>799</ele>
        <time>2011-11-21T11:11:44Z</time>
      </trkpt>
      <trkpt lat="42.57213" lon="2.25399">
        <ele>806</ele>
        <time>2011-11-21T11:11:44Z</time>
      </trkpt>
      <trkpt lat="42.57192" lon="2.25426">
        <ele>803</ele>
        <time>2011-11-21T11:11:44Z</time>
      </trkpt>
      <trkpt lat="42.57136" lon="2.25411">
        <ele>801</ele>
        <time>2011-11-21T11:11:44Z</time>
      </trkpt>
      <trkpt lat="42.57091" lon="2.25365">
        <ele>788</ele>
        <time>2011-11-21T11:11:44Z</time>
      </trkpt>
    </trkseg>
  </trk>
</gpx>